GW1732 Weather Reports


time (UTC)temp
C
wind
direction
speed
KPH
gust
KPH
rain 1hr
cm
rain 24hr
cm
rain mn
cm
humidity
%
barometer
mb
20260508195229 17 315 0.0 0.0 0.00 0.00 0.05 57 998.9
20260508194209 18 293 0.0 0.0 0.00 0.00 0.05 49 999.4
20260508193657 18 293 0.0 0.0 0.00 0.00 0.05 49 999.4
20260508193346 18 293 0.0 0.0 0.00 0.00 0.05 51 999.4
20260508192836 18 248 0.0 0.0 0.00 0.00 0.05 48 999.3
20260508192325 18 203 0.0 0.0 0.00 0.00 0.05 46 999.3
20260508191814 18 270 0.0 0.0 0.00 0.00 0.05 45 999.4
20260508190755 19 225 0.0 0.0 0.00 0.00 0.05 41 999.8
20260508190245 19 315 0.0 0.0 0.00 0.00 0.05 45 999.7
20260508185734 19 270 0.0 0.0 0.00 0.00 0.05 45 999.8
20260508185224 19 293 0.0 0.0 0.00 0.00 0.05 46 999.7
20260508184714 19 0 0.0 0.0 0.00 0.00 0.05 43 999.8
20260508183654 19 158 0.0 0.0 0.00 0.00 0.05 49 999.6
20260508183144 19 203 0.0 0.0 0.00 0.00 0.05 44 999.4
20260508182123 19 293 0.0 0.0 0.00 0.00 0.05 44 999.6
20260508181613 19 293 0.0 0.0 0.00 0.00 0.05 45 999.5
20260508180553 19 270 0.0 0.0 0.00 0.00 0.05 44 999.6
20260508180046 18 225 0.0 0.0 0.00 0.00 0.05 43 999.7
20260508175533 19 180 0.0 0.0 0.00 0.00 0.05 42 999.9
20260508175023 20 270 0.0 0.0 0.00 0.00 0.05 42 999.9
20260508174513 20 270 0.0 0.0 0.00 0.00 0.05 41 999.8
20260508174003 20 248 0.0 0.0 0.00 0.00 0.05 44 1000.0
20260508173453 20 315 0.0 0.0 0.00 0.00 0.05 41 999.8
20260508172943 20 338 0.0 0.0 0.00 0.00 0.05 41 999.9
20260508172432 20 248 0.0 0.0 0.00 0.00 0.05 47 999.9
20260508171922 19 225 0.0 0.0 0.00 0.00 0.05 42 999.9
20260508171413 19 203 0.0 0.0 0.00 0.00 0.05 45 999.9
20260508170903 18 248 0.0 0.0 0.00 0.00 0.05 45 1000.0
20260508170352 19 203 0.0 0.0 0.00 0.00 0.05 43 1000.1
20260508165842 19 270 0.0 0.0 0.00 0.00 0.05 42 1000.2
20260508165332 19 270 0.0 0.0 0.00 0.00 0.05 45 1000.2
20260508164822 18 225 0.0 0.0 0.00 0.00 0.05 47 1000.2
20260508164312 19 203 0.0 0.0 0.00 0.00 0.05 41 1000.2
20260508162741 18 225 0.0 0.0 0.00 0.00 0.05 48 1000.3
20260508162231 19 225 0.0 0.0 0.00 0.00 0.05 44 1000.3
20260508161211 19 248 0.0 0.0 0.00 0.00 0.05 53 1000.5
20260508160701 18 293 0.0 0.0 0.00 0.00 0.05 55 1000.4
20260508160151 18 315 0.0 0.0 0.00 0.00 0.05 47 1000.8
20260508155131 18 248 0.0 0.0 0.00 0.00 0.05 46 1000.9
20260508154620 19 248 0.0 0.0 0.00 0.00 0.05 48 1001.2
20260508154110 18 203 0.0 0.0 0.00 0.00 0.05 49 1001.1
20260508153600 17 203 0.0 0.0 0.00 0.00 0.05 48 1001.1
20260508153050 18 225 0.0 0.0 0.00 0.00 0.05 47 1001.2
20260508152540 18 225 0.0 0.0 0.00 0.00 0.05 53 1001.2
20260508152030 18 203 0.0 0.0 0.00 0.00 0.05 50 1001.4
20260508151520 18 248 0.0 0.0 0.00 0.00 0.05 43 1001.4
20260508150459 18 270 0.0 0.0 0.00 0.00 0.05 47 1001.8
20260508145949 18 225 0.0 0.0 0.00 0.00 0.05 49 1001.6
20260508145439 18 225 0.0 0.0 0.00 0.00 0.05 58 1001.7
20260508144420 17 248 0.0 0.0 0.00 0.00 0.05 63 1001.6
20260508143359 17 248 0.0 0.0 0.00 0.00 0.05 61 1001.8
20260508142342 17 293 0.0 0.0 0.00 0.00 0.05 56 1001.9
20260508141828 17 248 0.0 0.0 0.00 0.00 0.05 58 1001.8
20260508141319 17 0 0.0 0.0 0.00 0.00 0.05 61 1001.9
20260508140808 17 270 0.0 0.0 0.00 0.00 0.05 70 1001.7
20260508140258 17 225 0.0 0.0 0.00 0.00 0.05 70 1001.9
20260508135748 16 315 0.0 0.0 0.00 0.00 0.05 72 1002.0
20260508135238 16 338 0.0 0.0 0.00 0.00 0.05 76 1001.9
20260508134728 16 293 0.0 0.0 0.00 0.00 0.05 73 1001.8
20260508134218 16 315 0.0 0.0 0.00 0.00 0.05 76 1001.7
20260508133707 15 338 0.0 0.0 0.00 0.00 0.05 75 1002.0
20260508133157 16 293 0.0 0.0 0.00 0.00 0.05 77 1001.9
20260508132647 16 270 0.0 0.0 0.00 0.00 0.05 78 1001.8
20260508132138 15 225 0.0 0.0 0.00 0.00 0.05 81 1001.7
20260508131627 15 270 0.0 0.0 0.00 0.00 0.05 74 1001.8
20260508130607 16 248 0.0 0.0 0.00 0.00 0.05 80 1001.6
20260508130057 15 293 0.0 0.0 0.00 0.00 0.05 78 1001.7
20260508125547 15 248 0.0 0.0 0.00 0.00 0.05 78 1001.7
20260508124526 15 315 0.0 0.0 0.00 0.00 0.05 81 1001.6
20260508124016 14 293 0.0 0.0 0.00 0.00 0.05 84 1001.5
20260508123506 14 270 0.0 0.0 0.00 0.00 0.05 87 1001.4
20260508122956 14 293 0.0 0.0 0.00 0.00 0.05 86 1001.6
20260508122445 13 315 0.0 0.0 0.00 0.00 0.05 86 1001.5
20260508121345 13 338 0.0 0.0 0.00 0.00 0.05 89 1001.4
20260508120833 13 315 0.0 0.0 0.00 0.00 0.05 90 1001.4
20260508104340 7 248 0.0 0.0 0.00 0.03 0.05 99 1000.2
20260508103321 7 248 0.0 0.0 0.03 0.03 0.05 99 1000.2
20260508102810 8 248 0.0 0.0 0.03 0.03 0.05 99 1000.1
20260508101240 7 248 0.0 0.0 0.03 0.03 0.05 99 999.7
20260508100219 8 248 0.0 0.0 0.03 0.03 0.05 99 999.7
20260508095709 8 248 0.0 0.0 0.03 0.03 0.05 99 999.6
20260508095159 8 248 0.0 0.0 0.03 0.03 0.05 99 999.5
20260508094649 8 248 0.0 0.0 0.03 0.03 0.05 99 999.5
20260508094139 8 248 0.0 0.0 0.03 0.03 0.05 99 999.3
20260508093629 8 248 0.0 0.0 0.00 0.00 0.03 99 999.2
20260508093118 8 248 0.0 0.0 0.00 0.00 0.03 99 999.3
20260508092608 8 248 0.0 0.0 0.00 0.00 0.03 99 999.4
20260508092058 8 248 0.0 0.0 0.00 0.00 0.03 99 999.3
20260508091549 8 248 0.0 0.0 0.00 0.00 0.03 99 999.3
20260508091038 8 248 0.0 0.0 0.00 0.00 0.03 99 999.1
20260508090528 9 248 0.0 0.0 0.00 0.00 0.03 99 999.1
20260508090018 8 248 0.0 0.0 0.00 0.00 0.03 99 999.1
20260508084958 9 248 0.0 0.0 0.00 0.00 0.03 99 999.2
20260508084447 9 248 0.0 0.0 0.00 0.00 0.03 99 999.2
20260508083937 9 248 0.0 0.0 0.00 0.00 0.03 99 999.2
20260508083428 10 248 0.0 0.0 0.00 0.00 0.03 99 999.2
20260508082917 10 248 0.0 0.0 0.00 0.00 0.03 98 999.4
20260508082408 9 248 0.0 0.0 0.00 0.00 0.03 98 999.5
20260508081857 10 248 0.0 0.0 0.00 0.00 0.03 98 999.3
20260508081347 10 248 0.0 0.0 0.00 0.00 0.03 98 999.5
20260508080837 10 248 0.0 0.0 0.00 0.00 0.03 98 999.4
20260508080325 10 248 0.0 0.0 0.00 0.00 0.03 98 999.4
20260508075816 10 248 0.0 0.0 0.00 0.00 0.03 98 999.3
20260508075308 10 248 0.0 0.0 0.00 0.00 0.03 97 999.4
20260508074756 10 248 0.0 0.0 0.00 0.00 0.03 97 999.4
20260508074246 10 248 0.0 0.0 0.00 0.00 0.03 97 999.4
20260508073736 10 225 0.0 0.0 0.00 0.00 0.03 97 999.3
20260508073226 10 225 0.0 0.0 0.00 0.00 0.03 97 999.3
20260508072206 10 225 0.0 0.0 0.00 0.00 0.03 97 999.1
20260508071655 10 225 0.0 0.0 0.00 0.00 0.03 97 999.1
20260508071145 11 225 0.0 0.0 0.00 0.00 0.03 97 999.0
20260508070635 11 225 0.0 0.0 0.00 0.00 0.03 97 999.0
20260508070125 11 248 0.0 0.0 0.00 0.00 0.03 97 998.9
20260508065616 11 225 0.0 0.0 0.00 0.00 0.03 97 998.8
20260508065106 11 225 0.0 0.0 0.00 0.00 0.03 97 998.8
20260508064555 11 225 0.0 0.0 0.00 0.00 0.03 97 998.9
20260508064045 11 248 0.0 0.0 0.00 0.00 0.03 97 999.0
20260508063534 11 248 0.0 0.0 0.00 0.00 0.03 97 998.9
20260508062514 11 248 0.0 0.0 0.00 0.00 0.03 96 999.0
20260508062004 11 248 0.0 0.0 0.00 0.00 0.03 96 998.8
20260508061454 11 248 0.0 0.0 0.00 0.00 0.03 96 998.9
20260508060944 11 248 0.0 0.0 0.00 0.00 0.03 97 998.8
20260508060435 12 135 0.0 0.0 0.00 0.00 0.03 97 998.6
20260508055925 12 248 0.0 0.0 0.00 0.00 0.03 97 998.6
20260508055414 12 248 0.0 0.0 0.00 0.00 0.03 97 998.7
20260508054354 12 338 0.0 0.0 0.00 0.00 0.03 96 998.3
20260508053843 12 203 0.0 0.0 0.00 0.00 0.03 96 998.4
20260508053333 12 225 0.0 0.0 0.00 0.00 0.03 96 998.4
20260508050743 13 203 0.0 0.0 0.00 0.00 0.03 96 998.0
20260508050232 12 225 0.0 0.0 0.00 0.00 0.03 96 998.2
20260508045722 13 225 0.0 0.0 0.00 0.00 0.03 97 998.2
20260508045211 13 225 0.0 0.0 0.00 0.00 0.03 97 998.1
20260508035501 13 135 0.0 0.0 0.03 0.28 0.03 99 997.7
20260508034441 13 135 0.0 0.0 0.00 0.23 0.00 99 997.5
20260508033930 13 135 0.0 0.0 0.00 0.23 0.00 99 997.6
20260508033420 13 135 0.0 0.0 0.00 0.23 0.00 99 996.9
20260508032400 13 135 0.0 0.0 0.00 0.23 0.00 98 997.5
20260508031850 13 135 0.0 0.0 0.00 0.23 0.00 98 996.9
20260508030830 13 135 0.0 0.0 0.00 0.23 0.00 98 996.9
20260508030320 13 135 0.0 0.0 0.00 0.23 0.00 98 996.7
20260508025809 13 158 0.0 0.0 0.00 0.23 3.30 98 996.8
20260508024749 13 158 0.0 0.0 0.03 0.23 3.30 98 996.7
20260508023729 13 158 0.0 0.0 0.15 0.23 3.30 98 996.7
20260508023219 13 158 0.0 0.0 0.23 0.23 3.30 98 996.7
20260508022708 13 158 0.0 0.0 0.23 0.23 3.30 97 996.3
20260508022158 13 158 0.0 0.0 0.23 0.23 3.30 98 996.8
20260508021648 13 158 0.0 0.0 0.23 0.23 3.30 97 997.1
20260508020628 13 180 0.0 0.0 0.23 0.23 3.30 97 997.2
20260508020118 13 180 0.0 0.0 0.23 0.23 3.30 97 997.5
20260508015608 12 180 0.0 0.0 0.23 0.23 3.30 97 997.2
20260508014547 12 158 0.0 0.0 0.20 0.20 3.28 97 997.1
20260508014037 12 203 0.0 0.0 0.15 0.15 3.20 98 997.2
20260508013015 13 203 0.0 0.0 0.00 0.00 3.05 97 997.8
20260508012222 13 248 0.0 0.0 0.15 0.15 2.64 95 997.7
20260508011712 13 180 0.0 0.0 0.10 0.10 2.59 94 997.5
20260508010141 14 270 0.0 0.0 0.00 0.00 2.49 94 996.2
20260507223340 17 158 0.0 0.0 0.97 0.97 2.21 98 993.1
20260507222829 17 248 0.0 0.0 0.89 0.89 2.16 99 993.3
20260507222320 17 225 0.0 0.0 0.81 0.81 2.06 98 994.1
20260507221810 17 158 0.0 0.0 0.69 0.69 1.98 98 993.2
20260507221259 17 248 0.0 0.0 0.56 0.56 1.83 98 993.7
20260507220239 17 180 0.0 0.0 0.43 0.43 1.68 98 991.6
20260507215729 18 248 0.0 0.0 0.36 0.36 1.63 98 991.1
20260507214709 18 180 0.0 0.0 0.28 0.28 1.52 98 991.0
20260507214157 18 225 0.0 0.0 0.00 0.00 1.27 98 991.1
20260507211322 23 338 0.0 0.0 0.28 0.28 0.28 87 987.9
20260507210812 24 338 0.0 0.0 0.18 0.18 0.18 82 988.5
20260507210302 24 293 0.0 0.0 0.15 0.15 0.15 79 988.1
20260507205752 24 315 0.0 0.0 0.15 0.15 0.15 78 987.8
20260507205242 25 315 0.0 0.0 0.15 0.15 0.15 78 988.0
20260507204731 27 23 0.0 0.0 0.10 0.10 0.10 74 987.9
20260507204221 28 23 0.0 0.0 0.00 0.00 0.00 61 987.9
20260507203711 28 338 0.0 0.0 0.00 0.00 0.00 62 988.0
20260507203201 28 0 0.0 0.0 0.00 0.00 0.00 62 988.2
20260507202651 28 23 0.0 0.0 0.00 0.00 0.00 61 988.4
20260507202141 28 23 0.0 0.0 0.00 0.00 0.00 62 988.2
20260507201631 28 23 0.0 0.0 0.00 0.00 0.00 62 988.5
20260507201121 28 0 0.0 0.0 0.00 0.00 0.00 62 988.4
20260507200611 28 315 0.0 0.0 0.00 0.00 0.00 63 988.6
20260507200109 28 0 0.0 0.0 0.00 0.00 0.00 62 988.7